| time (UTC) | temp F | wind direction | speed MPH | gust MPH | rain 1hr in | rain 24hr in | rain mn in | humidity % | barometer mb |
| 20260507052035 | 54 | 284 | 0.0 | 0.0 | 0.00 | 0.00 | 0.00 | 89 | 1022.9 |
| 20260507051516 | 54 | 256 | 0.0 | 0.0 | 0.00 | 0.00 | 0.00 | 89 | 1023.0 |
| 20260507051416 | 54 | 256 | 0.0 | 0.0 | 0.00 | 0.00 | 0.00 | 89 | 1023.0 |
| 20260507051013 | 54 | 256 | 0.0 | 0.0 | 0.00 | 0.00 | 0.00 | 89 | 1023.0 |
| 20260507050914 | 54 | 256 | 0.0 | 0.0 | 0.00 | 0.00 | 0.00 | 89 | 1023.0 |
| 20260507050516 | 54 | 256 | 0.0 | 0.0 | 0.00 | 0.00 | 0.00 | 89 | 1023.0 |
| 20260507050417 | 54 | 256 | 0.0 | 0.0 | 0.00 | 0.00 | 0.00 | 89 | 1023.0 |
| 20260507050021 | 54 | 256 | 0.0 | 0.0 | 0.00 | 0.00 | 0.00 | 89 | 1023.0 |
| 20260507045925 | 54 | 256 | 0.0 | 0.0 | 0.00 | 0.00 | 0.00 | 89 | 1023.0 |
| 20260507045519 | 54 | 319 | 0.0 | 0.0 | 0.00 | 0.00 | 0.00 | 89 | 1023.0 |
| 20260507045419 | 54 | 319 | 0.0 | 0.0 | 0.00 | 0.00 | 0.00 | 89 | 1023.0 |
| 20260507045019 | 54 | 220 | 0.0 | 0.0 | 0.00 | 0.00 | 0.00 | 89 | 1022.9 |
| 20260507044919 | 54 | 279 | 0.0 | 0.0 | 0.00 | 0.00 | 0.00 | 89 | 1023.0 |
| 20260507044517 | 54 | 273 | 0.0 | 0.0 | 0.00 | 0.00 | 0.00 | 89 | 1022.9 |
| 20260507044418 | 54 | 273 | 0.0 | 0.0 | 0.00 | 0.00 | 0.00 | 89 | 1022.9 |
| 20260507044014 | 54 | 274 | 0.0 | 0.0 | 0.00 | 0.00 | 0.00 | 89 | 1022.9 |
| 20260507043916 | 54 | 274 | 0.0 | 0.0 | 0.00 | 0.00 | 0.00 | 89 | 1022.9 |
| 20260507043520 | 54 | 273 | 0.0 | 0.0 | 0.00 | 0.00 | 0.00 | 89 | 1022.9 |
| 20260507043420 | 54 | 274 | 0.0 | 0.0 | 0.00 | 0.00 | 0.00 | 89 | 1022.9 |
| 20260507043017 | 54 | 273 | 0.0 | 0.0 | 0.00 | 0.00 | 0.00 | 89 | 1022.9 |
| 20260507042936 | 54 | 274 | 0.0 | 0.0 | 0.00 | 0.00 | 0.00 | 89 | 1022.9 |
| 20260507042531 | 54 | 274 | 0.0 | 0.0 | 0.00 | 0.00 | 0.00 | 89 | 1022.9 |
| 20260507042412 | 54 | 274 | 0.0 | 0.0 | 0.00 | 0.00 | 0.00 | 89 | 1022.8 |
| 20260507042013 | 54 | 273 | 0.0 | 0.0 | 0.00 | 0.00 | 0.00 | 89 | 1022.8 |
| 20260507041913 | 54 | 273 | 0.0 | 0.0 | 0.00 | 0.00 | 0.00 | 88 | 1022.9 |
| 20260507041513 | 54 | 273 | 0.0 | 0.0 | 0.00 | 0.00 | 0.00 | 88 | 1023.0 |
| 20260507041414 | 54 | 274 | 0.0 | 0.0 | 0.00 | 0.00 | 0.00 | 88 | 1022.9 |
| 20260507041014 | 54 | 274 | 0.0 | 0.0 | 0.00 | 0.00 | 0.00 | 88 | 1022.9 |
| 20260507040917 | 54 | 273 | 0.0 | 0.0 | 0.00 | 0.00 | 0.00 | 88 | 1022.9 |
| 20260507040517 | 54 | 273 | 0.0 | 0.0 | 0.00 | 0.00 | 0.00 | 88 | 1022.9 |
| 20260507040416 | 54 | 273 | 0.0 | 0.0 | 0.00 | 0.00 | 0.00 | 88 | 1022.9 |
| 20260507040018 | 54 | 274 | 0.0 | 0.0 | 0.00 | 0.00 | 0.00 | 88 | 1022.9 |
| 20260507035920 | 54 | 273 | 0.0 | 0.0 | 0.00 | 0.00 | 0.00 | 88 | 1022.9 |
| 20260507035519 | 54 | 273 | 0.0 | 0.0 | 0.00 | 0.00 | 0.00 | 88 | 1022.8 |
| 20260507035422 | 54 | 274 | 0.0 | 0.0 | 0.00 | 0.00 | 0.00 | 88 | 1022.8 |
| 20260507035020 | 54 | 273 | 0.0 | 0.0 | 0.00 | 0.00 | 0.00 | 88 | 1022.7 |
| 20260507034919 | 54 | 274 | 0.0 | 0.0 | 0.00 | 0.00 | 0.00 | 88 | 1022.8 |
| 20260507034517 | 54 | 273 | 0.0 | 0.0 | 0.00 | 0.00 | 0.00 | 88 | 1022.8 |
| 20260507034417 | 54 | 273 | 0.0 | 0.0 | 0.00 | 0.00 | 0.00 | 88 | 1022.9 |
| 20260507034016 | 54 | 274 | 0.0 | 0.0 | 0.00 | 0.00 | 0.00 | 88 | 1022.7 |
| 20260507033916 | 54 | 273 | 0.0 | 0.0 | 0.00 | 0.00 | 0.00 | 88 | 1022.8 |
| 20260507033515 | 54 | 274 | 0.0 | 0.0 | 0.00 | 0.00 | 0.00 | 88 | 1022.8 |
| 20260507033433 | 54 | 274 | 0.0 | 0.0 | 0.00 | 0.00 | 0.00 | 88 | 1022.8 |
| 20260507033028 | 55 | 273 | 0.0 | 0.0 | 0.00 | 0.00 | 0.00 | 88 | 1022.8 |
| 20260507032928 | 54 | 273 | 0.0 | 0.0 | 0.00 | 0.00 | 0.00 | 88 | 1022.7 |
| 20260507032528 | 55 | 273 | 0.0 | 0.0 | 0.00 | 0.00 | 0.00 | 88 | 1022.7 |
| 20260507032427 | 55 | 273 | 0.0 | 0.0 | 0.00 | 0.00 | 0.00 | 88 | 1022.8 |
| 20260507032025 | 55 | 273 | 0.0 | 0.0 | 0.00 | 0.00 | 0.00 | 88 | 1022.7 |
| 20260507031927 | 55 | 273 | 0.0 | 0.0 | 0.00 | 0.00 | 0.00 | 88 | 1022.8 |
| 20260507031527 | 55 | 273 | 0.0 | 0.0 | 0.00 | 0.00 | 0.00 | 88 | 1022.7 |
| 20260507031428 | 55 | 273 | 0.0 | 0.0 | 0.00 | 0.00 | 0.00 | 88 | 1022.7 |
| 20260507031021 | 55 | 274 | 0.0 | 0.0 | 0.00 | 0.00 | 0.00 | 88 | 1022.8 |
| 20260507030924 | 55 | 274 | 0.0 | 0.0 | 0.00 | 0.00 | 0.00 | 88 | 1022.7 |
| 20260507030521 | 55 | 269 | 0.0 | 0.0 | 0.00 | 0.00 | 0.00 | 87 | 1022.7 |
| 20260507030424 | 55 | 269 | 0.0 | 0.0 | 0.00 | 0.00 | 0.00 | 87 | 1022.7 |
| 20260507030029 | 55 | 276 | 0.0 | 0.0 | 0.00 | 0.00 | 0.00 | 87 | 1022.6 |
| 20260507025930 | 55 | 276 | 0.0 | 0.0 | 0.00 | 0.00 | 0.00 | 87 | 1022.6 |
| 20260507025528 | 55 | 276 | 0.0 | 0.0 | 0.00 | 0.00 | 0.00 | 87 | 1022.6 |
| 20260507025427 | 55 | 276 | 0.0 | 0.0 | 0.00 | 0.00 | 0.00 | 87 | 1022.5 |
| 20260507025025 | 55 | 276 | 0.0 | 0.0 | 0.00 | 0.00 | 0.00 | 87 | 1022.6 |
| 20260507024927 | 55 | 276 | 0.0 | 0.0 | 0.00 | 0.00 | 0.00 | 87 | 1022.5 |
| 20260507024527 | 55 | 279 | 0.0 | 0.0 | 0.00 | 0.00 | 0.00 | 87 | 1022.6 |
| 20260507024429 | 55 | 279 | 0.0 | 0.0 | 0.00 | 0.00 | 0.00 | 87 | 1022.6 |
| 20260507024030 | 55 | 269 | 0.0 | 0.0 | 0.00 | 0.00 | 0.00 | 87 | 1022.5 |
| 20260507023931 | 55 | 89 | 0.0 | 0.0 | 0.00 | 0.00 | 0.00 | 87 | 1022.6 |
| 20260507023532 | 55 | 86 | 0.0 | 0.0 | 0.00 | 0.00 | 0.00 | 87 | 1022.6 |
| 20260507023413 | 55 | 86 | 0.0 | 0.0 | 0.00 | 0.00 | 0.00 | 86 | 1022.6 |
| 20260507023014 | 55 | 304 | 0.0 | 0.0 | 0.00 | 0.00 | 0.00 | 86 | 1022.6 |
| 20260507022915 | 55 | 304 | 0.0 | 0.0 | 0.00 | 0.00 | 0.00 | 86 | 1022.6 |
| 20260507022515 | 55 | 39 | 0.0 | 0.0 | 0.00 | 0.00 | 0.00 | 86 | 1022.6 |
| 20260507022435 | 55 | 39 | 0.0 | 0.0 | 0.00 | 0.00 | 0.00 | 86 | 1022.6 |
| 20260507022032 | 55 | 39 | 0.0 | 0.0 | 0.00 | 0.00 | 0.00 | 86 | 1022.5 |
| 20260507021913 | 55 | 39 | 0.0 | 0.0 | 0.00 | 0.00 | 0.00 | 86 | 1022.6 |
| 20260507021514 | 55 | 302 | 0.0 | 0.0 | 0.00 | 0.00 | 0.00 | 86 | 1022.6 |
| 20260507021435 | 56 | 302 | 0.0 | 0.0 | 0.00 | 0.00 | 0.00 | 86 | 1022.5 |
| 20260507021028 | 55 | 302 | 0.0 | 0.0 | 0.00 | 0.00 | 0.00 | 86 | 1022.5 |
| 20260507020933 | 55 | 302 | 0.0 | 0.0 | 0.00 | 0.00 | 0.00 | 86 | 1022.6 |
| 20260507020530 | 56 | 266 | 0.0 | 0.0 | 0.00 | 0.00 | 0.00 | 86 | 1022.6 |
| 20260507020415 | 55 | 283 | 0.0 | 0.0 | 0.00 | 0.00 | 0.00 | 86 | 1022.6 |
| 20260507020021 | 55 | 283 | 0.0 | 0.0 | 0.00 | 0.00 | 0.00 | 86 | 1022.7 |
| 20260507015917 | 55 | 283 | 0.0 | 0.0 | 0.00 | 0.00 | 0.00 | 86 | 1022.6 |
| 20260507015518 | 55 | 283 | 0.0 | 0.0 | 0.00 | 0.00 | 0.00 | 85 | 1022.6 |
| 20260507015420 | 55 | 283 | 0.0 | 0.0 | 0.00 | 0.00 | 0.00 | 85 | 1022.7 |
| 20260507015019 | 56 | 283 | 0.0 | 0.0 | 0.00 | 0.00 | 0.00 | 85 | 1022.7 |
| 20260507014920 | 56 | 207 | 0.0 | 0.0 | 0.00 | 0.00 | 0.00 | 85 | 1022.6 |
| 20260507014519 | 56 | 252 | 0.0 | 0.0 | 0.00 | 0.00 | 0.00 | 85 | 1022.8 |
| 20260507014420 | 56 | 268 | 0.0 | 0.0 | 0.00 | 0.00 | 0.00 | 85 | 1022.7 |
| 20260507014018 | 56 | 268 | 0.0 | 0.0 | 0.00 | 0.00 | 0.00 | 85 | 1022.8 |
| 20260507013920 | 56 | 268 | 0.0 | 0.0 | 0.00 | 0.00 | 0.00 | 85 | 1022.8 |
| 20260507013524 | 56 | 268 | 0.0 | 0.0 | 0.00 | 0.00 | 0.00 | 85 | 1022.8 |
| 20260507013423 | 56 | 269 | 0.0 | 0.0 | 0.00 | 0.00 | 0.00 | 85 | 1022.8 |
| 20260507013022 | 56 | 274 | 0.0 | 0.0 | 0.00 | 0.00 | 0.00 | 85 | 1022.8 |
| 20260507012923 | 56 | 274 | 0.0 | 0.0 | 0.00 | 0.00 | 0.00 | 85 | 1022.8 |
| 20260507012524 | 56 | 252 | 0.0 | 0.0 | 0.00 | 0.00 | 0.00 | 85 | 1022.8 |
| 20260507012426 | 56 | 249 | 0.0 | 0.0 | 0.00 | 0.00 | 0.00 | 85 | 1022.7 |
| 20260507012024 | 56 | 248 | 0.0 | 0.0 | 0.00 | 0.00 | 0.00 | 86 | 1022.8 |
| 20260507011925 | 56 | 248 | 0.0 | 0.0 | 0.00 | 0.00 | 0.00 | 86 | 1022.8 |
| 20260507011524 | 56 | 248 | 0.0 | 0.0 | 0.00 | 0.00 | 0.00 | 86 | 1022.8 |
| 20260507011424 | 56 | 248 | 0.0 | 0.0 | 0.00 | 0.00 | 0.00 | 86 | 1022.9 |
| 20260507011017 | 56 | 248 | 0.0 | 0.0 | 0.00 | 0.00 | 0.00 | 85 | 1022.9 |
| 20260507010935 | 56 | 248 | 0.0 | 0.0 | 0.00 | 0.00 | 0.00 | 85 | 1022.8 |
| 20260507010529 | 56 | 248 | 0.0 | 0.0 | 0.00 | 0.00 | 0.00 | 85 | 1022.9 |
| 20260507010413 | 56 | 240 | 0.0 | 0.0 | 0.00 | 0.00 | 0.00 | 85 | 1022.9 |
| 20260507010017 | 56 | 240 | 0.0 | 0.0 | 0.00 | 0.00 | 0.00 | 85 | 1023.0 |
| 20260507005916 | 56 | 247 | 0.0 | 0.0 | 0.00 | 0.00 | 0.00 | 85 | 1022.9 |
| 20260507005514 | 56 | 124 | 0.0 | 0.0 | 0.00 | 0.00 | 0.00 | 86 | 1023.0 |
| 20260507005433 | 56 | 124 | 0.0 | 0.0 | 0.00 | 0.00 | 0.00 | 86 | 1023.0 |
| 20260507005031 | 56 | 124 | 0.0 | 0.0 | 0.00 | 0.00 | 0.00 | 86 | 1023.0 |
| 20260507004930 | 56 | 124 | 0.0 | 0.0 | 0.00 | 0.00 | 0.00 | 86 | 1023.0 |
| 20260507004529 | 56 | 124 | 0.0 | 0.0 | 0.00 | 0.00 | 0.00 | 85 | 1023.0 |
| 20260507004428 | 56 | 124 | 0.0 | 0.0 | 0.00 | 0.00 | 0.00 | 85 | 1023.0 |
| 20260507004025 | 56 | 124 | 0.0 | 0.0 | 0.00 | 0.00 | 0.00 | 85 | 1023.0 |
| 20260507003924 | 56 | 81 | 0.0 | 0.0 | 0.00 | 0.00 | 0.00 | 85 | 1023.0 |
| 20260507003524 | 56 | 309 | 0.0 | 0.0 | 0.00 | 0.00 | 0.00 | 85 | 1023.1 |
| 20260507003422 | 56 | 309 | 0.0 | 0.0 | 0.00 | 0.00 | 0.00 | 85 | 1023.0 |
| 20260507003019 | 56 | 263 | 0.0 | 0.0 | 0.00 | 0.00 | 0.00 | 85 | 1023.1 |
| 20260507002919 | 56 | 264 | 0.0 | 0.0 | 0.00 | 0.00 | 0.00 | 85 | 1023.1 |
| 20260507002517 | 56 | 269 | 0.0 | 0.0 | 0.00 | 0.00 | 0.00 | 84 | 1023.1 |
| 20260507002416 | 56 | 274 | 0.0 | 0.0 | 0.00 | 0.00 | 0.00 | 84 | 1023.1 |
| 20260507002016 | 56 | 278 | 0.0 | 0.0 | 0.00 | 0.00 | 0.00 | 83 | 1023.0 |
| 20260507001935 | 56 | 271 | 0.0 | 0.0 | 0.00 | 0.00 | 0.00 | 83 | 1023.1 |
| 20260507001531 | 56 | 282 | 0.0 | 0.0 | 0.00 | 0.00 | 0.00 | 83 | 1023.1 |
| 20260507001434 | 56 | 289 | 0.0 | 0.0 | 0.00 | 0.00 | 0.00 | 83 | 1023.1 |
| 20260507001027 | 56 | 290 | 0.0 | 0.0 | 0.00 | 0.00 | 0.00 | 83 | 1023.2 |
| 20260507000928 | 56 | 289 | 0.0 | 0.0 | 0.00 | 0.00 | 0.00 | 83 | 1023.2 |
| 20260507000528 | 56 | 330 | 0.0 | 0.0 | 0.00 | 0.00 | 0.00 | 83 | 1023.1 |
| 20260507000427 | 56 | 27 | 0.0 | 0.0 | 0.00 | 0.00 | 0.00 | 83 | 1023.1 |
| 20260507000015 | 56 | 46 | 0.0 | 0.0 | 0.00 | 0.00 | 0.00 | 83 | 1023.2 |
| 20260506235935 | 56 | 62 | 0.0 | 0.0 | 0.00 | 0.00 | 0.00 | 83 | 1023.1 |
| 20260506235532 | 56 | 273 | 0.0 | 0.0 | 0.00 | 0.00 | 0.00 | 83 | 1023.1 |
| 20260506235432 | 56 | 270 | 0.0 | 0.0 | 0.00 | 0.00 | 0.00 | 83 | 1023.2 |
| 20260506235032 | 56 | 231 | 0.0 | 0.0 | 0.00 | 0.00 | 0.00 | 83 | 1023.2 |
| 20260506234915 | 56 | 236 | 0.0 | 0.0 | 0.00 | 0.00 | 0.00 | 83 | 1023.2 |
| 20260506234518 | 56 | 108 | 0.0 | 0.0 | 0.00 | 0.00 | 0.00 | 83 | 1023.2 |
| 20260506234417 | 56 | 132 | 0.0 | 0.0 | 0.00 | 0.00 | 0.00 | 83 | 1023.2 |
| 20260506234016 | 56 | 80 | 0.0 | 0.0 | 0.00 | 0.00 | 0.00 | 84 | 1023.2 |
| 20260506233935 | 56 | 300 | 0.0 | 0.0 | 0.00 | 0.00 | 0.00 | 84 | 1023.2 |
| 20260506233534 | 56 | 56 | 0.0 | 0.0 | 0.00 | 0.00 | 0.00 | 83 | 1023.2 |
| 20260506233432 | 56 | 254 | 0.0 | 0.0 | 0.00 | 0.00 | 0.00 | 83 | 1023.2 |
| 20260506233028 | 56 | 30 | 0.0 | 0.0 | 0.00 | 0.00 | 0.00 | 84 | 1023.3 |
| 20260506232927 | 56 | 34 | 0.0 | 0.0 | 0.00 | 0.00 | 0.00 | 84 | 1023.2 |
| 20260506232527 | 56 | 53 | 0.0 | 0.0 | 0.00 | 0.00 | 0.00 | 84 | 1023.2 |
| 20260506232426 | 56 | 96 | 0.0 | 0.0 | 0.00 | 0.00 | 0.00 | 84 | 1023.2 |
| 20260506232019 | 56 | 79 | 0.0 | 0.0 | 0.00 | 0.00 | 0.00 | 84 | 1023.2 |
| 20260506231922 | 56 | 78 | 0.0 | 0.0 | 0.00 | 0.00 | 0.00 | 84 | 1023.2 |
| 20260506231517 | 56 | 16 | 0.0 | 0.0 | 0.00 | 0.00 | 0.00 | 84 | 1023.3 |
| 20260506231422 | 56 | 358 | 0.0 | 0.0 | 0.00 | 0.00 | 0.00 | 84 | 1023.3 |
| 20260506231015 | 56 | 101 | 0.0 | 0.0 | 0.00 | 0.00 | 0.00 | 84 | 1023.3 |
| 20260506230934 | 56 | 340 | 0.0 | 0.0 | 0.00 | 0.00 | 0.00 | 84 | 1023.3 |
| 20260506230532 | 56 | 92 | 0.0 | 0.0 | 0.00 | 0.00 | 0.00 | 84 | 1023.4 |
| 20260506230430 | 56 | 281 | 0.0 | 0.0 | 0.00 | 0.00 | 0.00 | 84 | 1023.4 |
| 20260506230018 | 56 | 297 | 0.0 | 0.0 | 0.00 | 0.00 | 0.00 | 84 | 1023.4 |
| 20260506225917 | 56 | 300 | 0.0 | 0.0 | 0.00 | 0.00 | 0.00 | 84 | 1023.4 |
| 20260506225517 | 56 | 99 | 0.0 | 0.0 | 0.00 | 0.00 | 0.00 | 84 | 1023.4 |
| 20260506225417 | 56 | 110 | 0.0 | 0.0 | 0.00 | 0.00 | 0.00 | 84 | 1023.4 |
| 20260506225015 | 56 | 89 | 0.0 | 0.0 | 0.00 | 0.00 | 0.00 | 83 | 1023.4 |
| 20260506224934 | 56 | 89 | 0.0 | 0.0 | 0.00 | 0.00 | 0.00 | 83 | 1023.4 |
| 20260506224533 | 56 | 216 | 0.0 | 0.0 | 0.00 | 0.00 | 0.00 | 83 | 1023.4 |
| 20260506224434 | 57 | 229 | 0.0 | 0.0 | 0.00 | 0.00 | 0.00 | 83 | 1023.4 |
| 20260506224033 | 57 | 238 | 0.0 | 0.0 | 0.00 | 0.00 | 0.00 | 83 | 1023.4 |
| 20260506223931 | 57 | 93 | 0.0 | 0.0 | 0.00 | 0.00 | 0.00 | 83 | 1023.4 |
| 20260506223531 | 57 | 94 | 0.0 | 0.0 | 0.00 | 0.00 | 0.00 | 83 | 1023.5 |
| 20260506223429 | 57 | 96 | 0.0 | 0.0 | 0.00 | 0.00 | 0.00 | 83 | 1023.4 |
| 20260506223026 | 57 | 277 | 0.0 | 0.0 | 0.00 | 0.00 | 0.00 | 83 | 1023.5 |
| 20260506222926 | 57 | 44 | 0.0 | 0.0 | 0.00 | 0.00 | 0.00 | 83 | 1023.5 |
| 20260506222520 | 57 | 246 | 0.0 | 0.0 | 0.00 | 0.00 | 0.00 | 83 | 1023.6 |
| 20260506222423 | 57 | 248 | 0.0 | 0.0 | 0.00 | 0.00 | 0.00 | 83 | 1023.4 |
| 20260506222020 | 57 | 255 | 0.0 | 0.0 | 0.00 | 0.00 | 0.00 | 84 | 1023.5 |
| 20260506221926 | 57 | 257 | 0.0 | 0.0 | 0.00 | 0.00 | 0.00 | 84 | 1023.6 |
| 20260506221522 | 56 | 248 | 0.0 | 0.0 | 0.00 | 0.00 | 0.00 | 84 | 1023.5 |
| 20260506221421 | 56 | 39 | 0.0 | 0.0 | 0.00 | 0.00 | 0.00 | 84 | 1023.5 |
| 20260506221020 | 56 | 1 | 0.0 | 0.0 | 0.00 | 0.00 | 0.00 | 84 | 1023.6 |
| 20260506220919 | 56 | 10 | 0.0 | 0.0 | 0.00 | 0.00 | 0.00 | 84 | 1023.6 |
| 20260506220521 | 56 | 342 | 0.0 | 0.0 | 0.00 | 0.00 | 0.00 | 83 | 1023.6 |
| 20260506220421 | 56 | 329 | 0.0 | 0.0 | 0.00 | 0.00 | 0.00 | 83 | 1023.6 |
| 20260506220028 | 56 | 137 | 0.0 | 0.0 | 0.00 | 0.00 | 0.00 | 83 | 1023.6 |
| 20260506215931 | 56 | 208 | 0.0 | 0.0 | 0.00 | 0.00 | 0.00 | 83 | 1023.6 |
| 20260506215531 | 56 | 304 | 0.0 | 0.0 | 0.00 | 0.00 | 0.00 | 83 | 1023.6 |
| 20260506215431 | 56 | 26 | 0.0 | 0.0 | 0.00 | 0.00 | 0.00 | 83 | 1023.5 |
| 20260506215028 | 57 | 334 | 0.0 | 0.0 | 0.00 | 0.00 | 0.00 | 83 | 1023.5 |
| 20260506214928 | 57 | 295 | 0.0 | 0.0 | 0.00 | 0.00 | 0.00 | 83 | 1023.4 |
| 20260506214525 | 57 | 295 | 0.0 | 0.0 | 0.00 | 0.00 | 0.00 | 83 | 1023.5 |
| 20260506214426 | 57 | 11 | 0.0 | 0.0 | 0.00 | 0.00 | 0.00 | 83 | 1023.5 |
| 20260506214022 | 57 | 155 | 0.0 | 0.0 | 0.00 | 0.00 | 0.00 | 83 | 1023.4 |
| 20260506213921 | 57 | 292 | 0.0 | 0.0 | 0.00 | 0.00 | 0.00 | 82 | 1023.4 |
| 20260506213519 | 57 | 300 | 0.0 | 0.0 | 0.00 | 0.00 | 0.00 | 83 | 1023.5 |
| 20260506213438 | 57 | 22 | 0.0 | 0.0 | 0.00 | 0.00 | 0.00 | 82 | 1023.5 |
| 20260506213031 | 57 | 75 | 0.0 | 0.0 | 0.00 | 0.00 | 0.00 | 82 | 1023.3 |
| 20260506212935 | 57 | 110 | 0.0 | 0.0 | 0.00 | 0.00 | 0.00 | 82 | 1023.3 |
| 20260506212531 | 57 | 73 | 0.0 | 0.0 | 0.00 | 0.00 | 0.00 | 83 | 1023.4 |
| 20260506212430 | 57 | 73 | 0.0 | 0.0 | 0.00 | 0.00 | 0.00 | 83 | 1023.4 |
| 20260506212027 | 57 | 318 | 0.0 | 0.0 | 0.00 | 0.00 | 0.00 | 83 | 1023.4 |
| 20260506211927 | 57 | 314 | 0.0 | 0.0 | 0.00 | 0.00 | 0.00 | 83 | 1023.3 |
| 20260506211526 | 57 | 81 | 0.0 | 0.0 | 0.00 | 0.00 | 0.00 | 83 | 1023.3 |
| 20260506211426 | 57 | 87 | 0.0 | 0.0 | 0.00 | 0.00 | 0.00 | 83 | 1023.3 |
| 20260506211021 | 57 | 96 | 0.0 | 0.0 | 0.00 | 0.00 | 0.00 | 83 | 1023.3 |
| 20260506210920 | 57 | 81 | 0.0 | 0.0 | 0.00 | 0.00 | 0.00 | 83 | 1023.3 |
| 20260506210517 | 57 | 70 | 0.0 | 0.0 | 0.00 | 0.00 | 0.00 | 82 | 1023.3 |
| 20260506210416 | 57 | 109 | 0.0 | 0.0 | 0.00 | 0.00 | 0.00 | 82 | 1023.4 |
| 20260506210025 | 57 | 110 | 0.0 | 0.0 | 0.00 | 0.00 | 0.00 | 83 | 1023.3 |
| 20260506205925 | 57 | 300 | 0.0 | 0.0 | 0.00 | 0.00 | 0.00 | 82 | 1023.3 |
| 20260506205524 | 57 | 71 | 0.0 | 0.0 | 0.00 | 0.00 | 0.00 | 82 | 1023.3 |
| 20260506205423 | 57 | 84 | 0.0 | 0.0 | 0.00 | 0.00 | 0.00 | 82 | 1023.3 |
| 20260506205020 | 58 | 307 | 0.0 | 0.0 | 0.00 | 0.00 | 0.00 | 82 | 1023.3 |
| 20260506204919 | 57 | 305 | 0.0 | 0.0 | 0.00 | 0.00 | 0.00 | 82 | 1023.3 |
| 20260506204516 | 57 | 83 | 0.0 | 0.0 | 0.00 | 0.00 | 0.00 | 82 | 1023.4 |
| 20260506204434 | 57 | 83 | 0.0 | 0.0 | 0.00 | 0.00 | 0.00 | 82 | 1023.3 |
| 20260506204026 | 57 | 329 | 0.0 | 0.0 | 0.00 | 0.00 | 0.00 | 82 | 1023.3 |
| 20260506203931 | 57 | 124 | 0.0 | 0.0 | 0.00 | 0.00 | 0.00 | 82 | 1023.3 |
| 20260506203529 | 57 | 82 | 0.0 | 0.0 | 0.00 | 0.00 | 0.00 | 82 | 1023.3 |
| 20260506203432 | 57 | 267 | 0.0 | 0.0 | 0.00 | 0.00 | 0.00 | 83 | 1023.2 |
| 20260506203025 | 57 | 295 | 0.0 | 0.0 | 0.00 | 0.00 | 0.00 | 82 | 1023.2 |
| 20260506202925 | 57 | 84 | 0.0 | 0.0 | 0.00 | 0.00 | 0.00 | 82 | 1023.2 |
| 20260506202521 | 57 | 294 | 0.0 | 0.0 | 0.00 | 0.00 | 0.00 | 81 | 1023.1 |
| 20260506202420 | 57 | 307 | 0.0 | 0.0 | 0.00 | 0.00 | 0.00 | 81 | 1023.2 |
| 20260506202018 | 57 | 193 | 0.0 | 0.0 | 0.00 | 0.00 | 0.00 | 82 | 1023.2 |
| 20260506201918 | 57 | 193 | 0.0 | 0.0 | 0.00 | 0.00 | 0.00 | 83 | 1023.2 |
| 20260506201519 | 57 | 33 | 0.0 | 0.0 | 0.00 | 0.00 | 0.00 | 82 | 1023.1 |
| 20260506201418 | 57 | 323 | 0.0 | 0.0 | 0.00 | 0.00 | 0.00 | 82 | 1023.1 |
| 20260506201014 | 57 | 269 | 0.0 | 0.0 | 0.00 | 0.00 | 0.00 | 82 | 1023.2 |
| 20260506200933 | 57 | 269 | 0.0 | 0.0 | 0.00 | 0.00 | 0.00 | 82 | 1023.2 |
| 20260506200532 | 57 | 328 | 0.0 | 0.0 | 0.00 | 0.00 | 0.00 | 81 | 1023.2 |
| 20260506200431 | 58 | 294 | 0.0 | 0.0 | 0.00 | 0.00 | 0.00 | 81 | 1023.2 |
| 20260506200021 | 57 | 300 | 0.0 | 0.0 | 0.00 | 0.00 | 0.00 | 81 | 1023.2 |
| 20260506195923 | 57 | 312 | 0.0 | 0.0 | 0.00 | 0.00 | 0.00 | 82 | 1023.2 |
| 20260506195522 | 57 | 120 | 0.0 | 0.0 | 0.00 | 0.00 | 0.00 | 81 | 1023.2 |
| 20260506195420 | 57 | 273 | 0.0 | 0.0 | 0.00 | 0.00 | 0.00 | 81 | 1023.2 |
| 20260506195016 | 57 | 98 | 0.0 | 0.0 | 0.00 | 0.00 | 0.00 | 81 | 1023.2 |
| 20260506194916 | 57 | 90 | 0.0 | 0.0 | 0.00 | 0.00 | 0.00 | 81 | 1023.1 |
| 20260506194514 | 57 | 110 | 0.0 | 0.0 | 0.00 | 0.00 | 0.00 | 81 | 1023.1 |
| 20260506194434 | 57 | 84 | 0.0 | 0.0 | 0.00 | 0.00 | 0.00 | 81 | 1023.0 |
| 20260506194028 | 57 | 67 | 0.0 | 0.0 | 0.00 | 0.00 | 0.00 | 81 | 1023.1 |
| 20260506193932 | 57 | 70 | 0.0 | 0.0 | 0.00 | 0.00 | 0.00 | 81 | 1023.0 |
| 20260506193527 | 58 | 43 | 0.0 | 0.0 | 0.00 | 0.00 | 0.00 | 81 | 1023.0 |
| 20260506193424 | 58 | 126 | 0.0 | 0.0 | 0.00 | 0.00 | 0.00 | 80 | 1023.0 |
| 20260506193019 | 58 | 70 | 0.0 | 0.0 | 0.00 | 0.00 | 0.00 | 81 | 1023.1 |
| 20260506192919 | 58 | 134 | 0.0 | 0.0 | 0.00 | 0.00 | 0.00 | 81 | 1023.1 |
| 20260506192517 | 58 | 84 | 0.0 | 0.0 | 0.00 | 0.00 | 0.00 | 81 | 1023.1 |
| 20260506192417 | 58 | 84 | 0.0 | 0.0 | 0.00 | 0.00 | 0.00 | 81 | 1023.1 |
| 20260506192015 | 58 | 58 | 0.0 | 0.0 | 0.00 | 0.00 | 0.00 | 80 | 1023.1 |
| 20260506191934 | 58 | 322 | 0.0 | 0.0 | 0.00 | 0.00 | 0.00 | 80 | 1023.2 |
| 20260506191533 | 58 | 132 | 0.0 | 0.0 | 0.00 | 0.00 | 0.00 | 81 | 1023.2 |
| 20260506191431 | 58 | 132 | 0.0 | 0.0 | 0.00 | 0.00 | 0.00 | 81 | 1023.1 |
| 20260506191029 | 58 | 266 | 0.0 | 0.0 | 0.00 | 0.00 | 0.00 | 81 | 1023.2 |
| 20260506190929 | 58 | 29 | 0.0 | 0.0 | 0.00 | 0.00 | 0.00 | 81 | 1023.2 |
| 20260506190528 | 58 | 269 | 0.0 | 0.0 | 0.00 | 0.00 | 0.00 | 81 | 1023.2 |
| 20260506190427 | 58 | 326 | 0.0 | 0.0 | 0.00 | 0.00 | 0.00 | 81 | 1023.2 |
| 20260506190033 | 58 | 46 | 0.0 | 0.0 | 0.00 | 0.00 | 0.00 | 82 | 1023.2 |
| 20260506185934 | 57 | 46 | 0.0 | 0.0 | 0.00 | 0.00 | 0.00 | 82 | 1023.3 |
| 20260506185529 | 57 | 355 | 0.0 | 0.0 | 0.00 | 0.00 | 0.00 | 81 | 1023.2 |
| 20260506185433 | 57 | 355 | 0.0 | 0.0 | 0.00 | 0.00 | 0.00 | 81 | 1023.2 |
| 20260506185027 | 57 | 334 | 0.0 | 0.0 | 0.00 | 0.00 | 0.00 | 81 | 1023.1 |
| 20260506184933 | 57 | 332 | 0.0 | 0.0 | 0.00 | 0.00 | 0.00 | 81 | 1023.2 |
| 20260506184528 | 57 | 203 | 0.0 | 0.0 | 0.00 | 0.00 | 0.00 | 80 | 1023.1 |
| 20260506184431 | 57 | 53 | 0.0 | 0.0 | 0.00 | 0.00 | 0.00 | 80 | 1023.1 |
| 20260506184028 | 58 | 171 | 0.0 | 0.0 | 0.00 | 0.00 | 0.00 | 81 | 1023.0 |
| 20260506183928 | 58 | 299 | 0.0 | 0.0 | 0.00 | 0.00 | 0.00 | 82 | 1023.0 |
| 20260506183529 | 57 | 273 | 0.0 | 0.0 | 0.00 | 0.00 | 0.00 | 82 | 1023.0 |
| 20260506183427 | 57 | 303 | 0.0 | 0.0 | 0.00 | 0.00 | 0.00 | 82 | 1022.9 |
| 20260506183025 | 57 | 63 | 0.0 | 0.0 | 0.00 | 0.00 | 0.00 | 81 | 1022.9 |
| 20260506182925 | 57 | 63 | 0.0 | 0.0 | 0.00 | 0.00 | 0.00 | 81 | 1023.1 |
| 20260506182527 | 57 | 92 | 0.0 | 0.0 | 0.00 | 0.00 | 0.00 | 82 | 1022.9 |
| 20260506182425 | 57 | 290 | 0.0 | 0.0 | 0.00 | 0.00 | 0.00 | 82 | 1023.0 |
| 20260506182022 | 57 | 93 | 0.0 | 0.0 | 0.00 | 0.00 | 0.00 | 82 | 1023.0 |
| 20260506181922 | 57 | 93 | 0.0 | 0.0 | 0.00 | 0.00 | 0.00 | 82 | 1022.9 |
| 20260506181521 | 57 | 107 | 0.0 | 0.0 | 0.00 | 0.00 | 0.00 | 83 | 1022.9 |
| 20260506181423 | 57 | 316 | 0.0 | 0.0 | 0.00 | 0.00 | 0.00 | 82 | 1022.8 |
| 20260506181021 | 57 | 334 | 0.0 | 0.0 | 0.00 | 0.00 | 0.00 | 83 | 1022.9 |
| 20260506180923 | 57 | 68 | 0.0 | 0.0 | 0.00 | 0.00 | 0.00 | 83 | 1022.9 |
| 20260506180522 | 57 | 220 | 0.0 | 0.0 | 0.00 | 0.00 | 0.00 | 83 | 1022.8 |
| 20260506180420 | 57 | 225 | 0.0 | 0.0 | 0.00 | 0.00 | 0.00 | 83 | 1022.8 |
| 20260506180014 | 57 | 260 | 0.0 | 0.0 | 0.00 | 0.00 | 0.00 | 83 | 1022.9 |
| 20260506175934 | 57 | 260 | 0.0 | 0.0 | 0.00 | 0.00 | 0.00 | 83 | 1022.8 |
| 20260506175528 | 57 | 122 | 0.0 | 0.0 | 0.00 | 0.00 | 0.00 | 84 | 1022.9 |
| 20260506175413 | 57 | 127 | 0.0 | 0.0 | 0.00 | 0.00 | 0.00 | 84 | 1022.9 |
| 20260506175031 | 57 | 127 | 0.0 | 0.0 | 0.00 | 0.00 | 0.00 | 84 | 1022.8 |
| 20260506174917 | 57 | 127 | 0.0 | 0.0 | 0.00 | 0.00 | 0.00 | 84 | 1022.8 |
| 20260506174515 | 56 | 127 | 0.0 | 0.0 | 0.00 | 0.00 | 0.00 | 84 | 1022.7 |
| 20260506174420 | 56 | 129 | 0.0 | 0.0 | 0.00 | 0.00 | 0.00 | 83 | 1022.7 |
| 20260506174017 | 56 | 64 | 0.0 | 0.0 | 0.00 | 0.00 | 0.00 | 84 | 1022.7 |
| 20260506173917 | 56 | 146 | 0.0 | 0.0 | 0.00 | 0.00 | 0.00 | 84 | 1022.7 |
| 20260506173518 | 56 | 220 | 0.0 | 0.0 | 0.00 | 0.00 | 0.00 | 84 | 1022.6 |
| 20260506173435 | 56 | 220 | 0.0 | 0.0 | 0.00 | 0.00 | 0.00 | 84 | 1022.6 |
| 20260506173033 | 56 | 308 | 0.0 | 0.0 | 0.00 | 0.00 | 0.00 | 84 | 1022.6 |
| 20260506172933 | 56 | 308 | 0.0 | 0.0 | 0.00 | 0.00 | 0.00 | 84 | 1022.5 |
| 20260506172532 | 56 | 338 | 0.0 | 0.0 | 0.00 | 0.00 | 0.00 | 83 | 1022.6 |
| 20260506172431 | 56 | 4 | 0.0 | 0.0 | 0.00 | 0.00 | 0.00 | 83 | 1022.5 |
| 20260506172027 | 56 | 73 | 0.0 | 0.0 | 0.00 | 0.00 | 0.00 | 83 | 1022.5 |
| 20260506171927 | 56 | 73 | 0.0 | 0.0 | 0.00 | 0.00 | 0.00 | 83 | 1022.6 |
| 20260506171525 | 56 | 288 | 0.0 | 0.0 | 0.00 | 0.00 | 0.00 | 84 | 1022.4 |
| 20260506171426 | 56 | 288 | 0.0 | 0.0 | 0.00 | 0.00 | 0.00 | 84 | 1022.4 |
| 20260506171029 | 56 | 58 | 0.0 | 0.0 | 0.00 | 0.00 | 0.00 | 84 | 1022.5 |
| 20260506170930 | 56 | 51 | 0.0 | 0.0 | 0.00 | 0.00 | 0.00 | 84 | 1022.4 |
| 20260506170533 | 56 | 302 | 0.0 | 0.0 | 0.00 | 0.00 | 0.00 | 84 | 1022.3 |
| 20260506170431 | 56 | 302 | 0.0 | 0.0 | 0.00 | 0.00 | 0.00 | 84 | 1022.3 |
| 20260506170015 | 56 | 290 | 0.0 | 0.0 | 0.00 | 0.00 | 0.00 | 84 | 1022.3 |
| 20260506165915 | 56 | 290 | 0.0 | 0.0 | 0.00 | 0.00 | 0.00 | 84 | 1022.2 |
| 20260506165514 | 56 | 289 | 0.0 | 0.0 | 0.00 | 0.00 | 0.00 | 84 | 1022.2 |
| 20260506165434 | 56 | 272 | 0.0 | 0.0 | 0.00 | 0.00 | 0.00 | 84 | 1022.3 |
| 20260506165025 | 55 | 110 | 0.0 | 0.0 | 0.00 | 0.00 | 0.00 | 84 | 1022.4 |
| 20260506164930 | 55 | 110 | 0.0 | 0.0 | 0.00 | 0.00 | 0.00 | 84 | 1022.3 |
| 20260506164524 | 55 | 70 | 0.0 | 0.0 | 0.00 | 0.00 | 0.00 | 84 | 1022.1 |
| 20260506164424 | 55 | 70 | 0.0 | 0.0 | 0.00 | 0.00 | 0.00 | 84 | 1022.2 |
| 20260506164022 | 55 | 70 | 0.0 | 0.0 | 0.00 | 0.00 | 0.00 | 84 | 1022.2 |
| 20260506163923 | 55 | 70 | 0.0 | 0.0 | 0.00 | 0.00 | 0.00 | 84 | 1022.3 |
| 20260506163526 | 55 | 285 | 0.0 | 0.0 | 0.00 | 0.00 | 0.00 | 84 | 1022.3 |
| 20260506163426 | 55 | 285 | 0.0 | 0.0 | 0.00 | 0.00 | 0.00 | 84 | 1022.3 |
| 20260506163023 | 55 | 98 | 0.0 | 0.0 | 0.00 | 0.00 | 0.00 | 84 | 1022.1 |
| 20260506162922 | 55 | 98 | 0.0 | 0.0 | 0.00 | 0.00 | 0.00 | 85 | 1022.2 |
| 20260506162521 | 55 | 78 | 0.0 | 0.0 | 0.00 | 0.00 | 0.00 | 85 | 1022.2 |
| 20260506162421 | 55 | 80 | 0.0 | 0.0 | 0.00 | 0.00 | 0.00 | 85 | 1022.0 |
| 20260506162022 | 55 | 80 | 0.0 | 0.0 | 0.00 | 0.00 | 0.00 | 85 | 1022.1 |
| 20260506161922 | 55 | 81 | 0.0 | 0.0 | 0.00 | 0.00 | 0.00 | 85 | 1022.1 |
| 20260506161520 | 55 | 79 | 0.0 | 0.0 | 0.00 | 0.00 | 0.00 | 84 | 1022.0 |
| 20260506161421 | 55 | 79 | 0.0 | 0.0 | 0.00 | 0.00 | 0.00 | 85 | 1022.0 |
| 20260506161021 | 55 | 89 | 0.0 | 0.0 | 0.00 | 0.00 | 0.00 | 85 | 1022.1 |
| 20260506160921 | 55 | 89 | 0.0 | 0.0 | 0.00 | 0.00 | 0.00 | 85 | 1021.9 |
| 20260506160523 | 55 | 89 | 0.0 | 0.0 | 0.00 | 0.00 | 0.00 | 85 | 1021.9 |
| 20260506160423 | 55 | 89 | 0.0 | 0.0 | 0.00 | 0.00 | 0.00 | 85 | 1021.9 |
| 20260506160026 | 55 | 89 | 0.0 | 0.0 | 0.00 | 0.00 | 0.00 | 85 | 1021.7 |
| 20260506155931 | 55 | 89 | 0.0 | 0.0 | 0.00 | 0.00 | 0.00 | 85 | 1021.7 |
| 20260506155524 | 55 | 89 | 0.0 | 0.0 | 0.00 | 0.00 | 0.00 | 85 | 1021.8 |
| 20260506155427 | 55 | 89 | 0.0 | 0.0 | 0.00 | 0.00 | 0.00 | 85 | 1021.8 |
| 20260506155019 | 55 | 89 | 0.0 | 0.0 | 0.00 | 0.00 | 0.00 | 85 | 1021.7 |
| 20260506154918 | 55 | 51 | 0.0 | 0.0 | 0.00 | 0.00 | 0.00 | 85 | 1021.7 |
| 20260506154517 | 55 | 302 | 0.0 | 0.0 | 0.00 | 0.00 | 0.00 | 86 | 1021.5 |
| 20260506154417 | 55 | 302 | 0.0 | 0.0 | 0.00 | 0.00 | 0.00 | 86 | 1021.5 |
| 20260506154014 | 55 | 302 | 0.0 | 0.0 | 0.00 | 0.00 | 0.00 | 86 | 1021.6 |
| 20260506153915 | 55 | 302 | 0.0 | 0.0 | 0.00 | 0.00 | 0.00 | 86 | 1021.6 |
| 20260506153518 | 55 | 302 | 0.0 | 0.0 | 0.00 | 0.00 | 0.00 | 86 | 1021.4 |
| 20260506153418 | 55 | 77 | 0.0 | 0.0 | 0.00 | 0.00 | 0.00 | 86 | 1021.5 |
| 20260506153016 | 54 | 97 | 0.0 | 0.0 | 0.00 | 0.00 | 0.00 | 87 | 1021.4 |
| 20260506152916 | 54 | 97 | 0.0 | 0.0 | 0.00 | 0.00 | 0.00 | 87 | 1021.4 |
| 20260506152516 | 54 | 97 | 0.0 | 0.0 | 0.00 | 0.00 | 0.00 | 87 | 1021.5 |
| 20260506152435 | 54 | 97 | 0.0 | 0.0 | 0.00 | 0.00 | 0.00 | 87 | 1021.6 |
| 20260506152033 | 54 | 97 | 0.0 | 0.0 | 0.00 | 0.00 | 0.00 | 88 | 1021.5 |
| 20260506151913 | 54 | 97 | 0.0 | 0.0 | 0.00 | 0.00 | 0.00 | 88 | 1021.5 |
| 20260506151514 | 54 | 97 | 0.0 | 0.0 | 0.00 | 0.00 | 0.00 | 88 | 1021.4 |
| 20260506151415 | 54 | 97 | 0.0 | 0.0 | 0.00 | 0.00 | 0.00 | 88 | 1021.4 |
| 20260506151015 | 54 | 97 | 0.0 | 0.0 | 0.00 | 0.00 | 0.00 | 88 | 1021.3 |
| 20260506150917 | 54 | 97 | 0.0 | 0.0 | 0.00 | 0.00 | 0.00 | 88 | 1021.2 |
| 20260506150520 | 54 | 97 | 0.0 | 0.0 | 0.00 | 0.00 | 0.00 | 88 | 1021.3 |
| 20260506150419 | 54 | 97 | 0.0 | 0.0 | 0.00 | 0.00 | 0.00 | 88 | 1021.3 |
| 20260506150026 | 54 | 97 | 0.0 | 0.0 | 0.00 | 0.00 | 0.00 | 88 | 1021.5 |
| 20260506145914 | 54 | 97 | 0.0 | 0.0 | 0.00 | 0.00 | 0.00 | 88 | 1021.5 |
| 20260506145527 | 54 | 97 | 0.0 | 0.0 | 0.00 | 0.00 | 0.00 | 88 | 1021.5 |
| 20260506145412 | 54 | 97 | 0.0 | 0.0 | 0.00 | 0.00 | 0.00 | 88 | 1021.5 |
| 20260506145026 | 54 | 97 | 0.0 | 0.0 | 0.00 | 0.00 | 0.00 | 88 | 1021.5 |
| 20260506144927 | 54 | 97 | 0.0 | 0.0 | 0.00 | 0.00 | 0.00 | 88 | 1021.6 |
| 20260506144527 | 54 | 97 | 0.0 | 0.0 | 0.00 | 0.00 | 0.00 | 88 | 1021.6 |
| 20260506144428 | 54 | 97 | 0.0 | 0.0 | 0.00 | 0.00 | 0.00 | 88 | 1021.6 |
| 20260506144026 | 54 | 97 | 0.0 | 0.0 | 0.00 | 0.00 | 0.00 | 88 | 1021.6 |
| 20260506143927 | 54 | 97 | 0.0 | 0.0 | 0.00 | 0.00 | 0.00 | 88 | 1021.6 |
| 20260506143525 | 54 | 97 | 0.0 | 0.0 | 0.00 | 0.00 | 0.00 | 88 | 1021.6 |
| 20260506143426 | 54 | 97 | 0.0 | 0.0 | 0.00 | 0.00 | 0.00 | 88 | 1021.6 |
| 20260506143025 | 54 | 97 | 0.0 | 0.0 | 0.00 | 0.00 | 0.00 | 88 | 1021.5 |
| 20260506142928 | 54 | 97 | 0.0 | 0.0 | 0.00 | 0.00 | 0.00 | 88 | 1021.5 |
| 20260506142526 | 53 | 97 | 0.0 | 0.0 | 0.00 | 0.00 | 0.00 | 88 | 1021.6 |
| 20260506142427 | 53 | 97 | 0.0 | 0.0 | 0.00 | 0.00 | 0.00 | 88 | 1021.6 |
| 20260506142025 | 53 | 97 | 0.0 | 0.0 | 0.00 | 0.00 | 0.00 | 88 | 1021.7 |
| 20260506141926 | 53 | 97 | 0.0 | 0.0 | 0.00 | 0.00 | 0.00 | 88 | 1021.7 |
| 20260506141526 | 53 | 97 | 0.0 | 0.0 | 0.00 | 0.00 | 0.00 | 88 | 1021.6 |
| 20260506141425 | 53 | 97 | 0.0 | 0.0 | 0.00 | 0.00 | 0.00 | 88 | 1021.6 |
| 20260506141024 | 53 | 97 | 0.0 | 0.0 | 0.00 | 0.00 | 0.00 | 88 | 1021.5 |
| 20260506140926 | 53 | 97 | 0.0 | 0.0 | 0.00 | 0.00 | 0.00 | 89 | 1021.4 |
| 20260506140526 | 53 | 65 | 0.0 | 0.0 | 0.00 | 0.00 | 0.00 | 89 | 1021.4 |
| 20260506140426 | 53 | 65 | 0.0 | 0.0 | 0.00 | 0.00 | 0.00 | 89 | 1021.4 |
| 20260506140014 | 53 | 65 | 0.0 | 0.0 | 0.00 | 0.00 | 0.00 | 89 | 1021.2 |
| 20260506135934 | 53 | 65 | 0.0 | 0.0 | 0.00 | 0.00 | 0.00 | 89 | 1021.1 |
| 20260506135531 | 53 | 65 | 0.0 | 0.0 | 0.00 | 0.00 | 0.00 | 89 | 1021.1 |
| 20260506135435 | 53 | 65 | 0.0 | 0.0 | 0.00 | 0.00 | 0.00 | 89 | 1021.1 |
| 20260506135030 | 53 | 15 | 0.0 | 0.0 | 0.00 | 0.00 | 0.00 | 89 | 1021.2 |
| 20260506134931 | 53 | 15 | 0.0 | 0.0 | 0.00 | 0.00 | 0.00 | 89 | 1021.2 |
| 20260506134530 | 53 | 64 | 0.0 | 0.0 | 0.00 | 0.00 | 0.00 | 89 | 1021.0 |
| 20260506134412 | 53 | 96 | 0.0 | 0.0 | 0.00 | 0.00 | 0.00 | 89 | 1021.0 |
| 20260506134013 | 53 | 96 | 0.0 | 0.0 | 0.00 | 0.00 | 0.00 | 89 | 1021.0 |
| 20260506133917 | 53 | 96 | 0.0 | 0.0 | 0.00 | 0.00 | 0.00 | 89 | 1021.0 |
| 20260506133516 | 53 | 96 | 0.0 | 0.0 | 0.00 | 0.00 | 0.00 | 89 | 1020.9 |
| 20260506133435 | 53 | 96 | 0.0 | 0.0 | 0.00 | 0.00 | 0.00 | 89 | 1020.8 |
| 20260506133027 | 53 | 96 | 0.0 | 0.0 | 0.00 | 0.00 | 0.00 | 89 | 1021.0 |
| 20260506132929 | 53 | 96 | 0.0 | 0.0 | 0.00 | 0.00 | 0.00 | 89 | 1020.9 |
| 20260506132530 | 53 | 96 | 0.0 | 0.0 | 0.00 | 0.00 | 0.00 | 89 | 1020.9 |
| 20260506132431 | 53 | 96 | 0.0 | 0.0 | 0.00 | 0.00 | 0.00 | 89 | 1021.0 |
| 20260506132031 | 53 | 96 | 0.0 | 0.0 | 0.00 | 0.00 | 0.00 | 89 | 1021.0 |
| 20260506131913 | 53 | 96 | 0.0 | 0.0 | 0.00 | 0.00 | 0.00 | 89 | 1021.0 |
| 20260506131602 | 53 | 96 | 0.0 | 0.0 | 0.00 | 0.00 | 0.00 | 89 | 1021.0 |
| 20260506131031 | 53 | 96 | 0.0 | 0.0 | 0.00 | 0.00 | 0.00 | 89 | 1020.9 |
| 20260506130931 | 53 | 96 | 0.0 | 0.0 | 0.00 | 0.00 | 0.00 | 89 | 1020.9 |
| 20260506130528 | 53 | 96 | 0.0 | 0.0 | 0.00 | 0.00 | 0.00 | 89 | 1020.8 |
| 20260506130413 | 53 | 96 | 0.0 | 0.0 | 0.00 | 0.00 | 0.00 | 89 | 1020.8 |
| 20260506130016 | 53 | 96 | 0.0 | 0.0 | 0.00 | 0.00 | 0.00 | 89 | 1020.7 |
| 20260506125917 | 53 | 96 | 0.0 | 0.0 | 0.00 | 0.00 | 0.00 | 89 | 1020.8 |
| 20260506125516 | 53 | 82 | 0.0 | 0.0 | 0.00 | 0.00 | 0.00 | 89 | 1020.8 |
| 20260506125416 | 53 | 82 | 0.0 | 0.0 | 0.00 | 0.00 | 0.00 | 89 | 1020.8 |
| 20260506125018 | 53 | 82 | 0.0 | 0.0 | 0.00 | 0.00 | 0.00 | 89 | 1020.8 |
| 20260506124918 | 53 | 82 | 0.0 | 0.0 | 0.00 | 0.00 | 0.00 | 89 | 1020.8 |
| 20260506124518 | 53 | 82 | 0.0 | 0.0 | 0.00 | 0.00 | 0.00 | 89 | 1020.7 |
| 20260506124420 | 53 | 82 | 0.0 | 0.0 | 0.00 | 0.00 | 0.00 | 89 | 1020.7 |
| 20260506124021 | 53 | 82 | 0.0 | 0.0 | 0.00 | 0.00 | 0.00 | 89 | 1020.6 |
| 20260506123924 | 53 | 82 | 0.0 | 0.0 | 0.00 | 0.00 | 0.00 | 89 | 1020.6 |
| 20260506123527 | 53 | 82 | 0.0 | 0.0 | 0.00 | 0.00 | 0.00 | 89 | 1020.5 |
| 20260506123427 | 53 | 82 | 0.0 | 0.0 | 0.00 | 0.00 | 0.00 | 89 | 1020.6 |
| 20260506123027 | 53 | 82 | 0.0 | 0.0 | 0.00 | 0.00 | 0.00 | 89 | 1020.5 |
| 20260506122927 | 53 | 82 | 0.0 | 0.0 | 0.00 | 0.00 | 0.00 | 89 | 1020.5 |
| 20260506122527 | 53 | 82 | 0.0 | 0.0 | 0.00 | 0.00 | 0.00 | 89 | 1020.5 |
| 20260506122429 | 53 | 82 | 0.0 | 0.0 | 0.00 | 0.00 | 0.00 | 89 | 1020.5 |
| 20260506122028 | 53 | 82 | 0.0 | 0.0 | 0.00 | 0.00 | 0.00 | 89 | 1020.6 |
| 20260506121930 | 53 | 82 | 0.0 | 0.0 | 0.00 | 0.00 | 0.00 | 89 | 1020.7 |
| 20260506121527 | 53 | 82 | 0.0 | 0.0 | 0.00 | 0.00 | 0.00 | 89 | 1020.6 |
| 20260506121427 | 53 | 82 | 0.0 | 0.0 | 0.00 | 0.00 | 0.00 | 89 | 1020.5 |
| 20260506121027 | 53 | 82 | 0.0 | 0.0 | 0.00 | 0.00 | 0.00 | 89 | 1020.5 |
| 20260506120929 | 53 | 82 | 0.0 | 0.0 | 0.00 | 0.00 | 0.00 | 89 | 1020.6 |
| 20260506120515 | 53 | 82 | 0.0 | 0.0 | 0.00 | 0.00 | 0.00 | 89 | 1020.6 |
| 20260506120413 | 53 | 82 | 0.0 | 0.0 | 0.00 | 0.00 | 0.00 | 89 | 1020.6 |
| 20260506120015 | 53 | 82 | 0.0 | 0.0 | 0.00 | 0.00 | 0.00 | 89 | 1020.7 |
| 20260506115920 | 53 | 82 | 0.0 | 0.0 | 0.00 | 0.00 | 0.00 | 89 | 1020.8 |
| 20260506115516 | 53 | 82 | 0.0 | 0.0 | 0.00 | 0.00 | 0.00 | 89 | 1020.8 |
| 20260506115416 | 53 | 82 | 0.0 | 0.0 | 0.00 | 0.00 | 0.00 | 89 | 1020.7 |
| 20260506115017 | 53 | 82 | 0.0 | 0.0 | 0.00 | 0.00 | 0.00 | 88 | 1020.8 |
| 20260506114919 | 53 | 82 | 0.0 | 0.0 | 0.00 | 0.00 | 0.00 | 88 | 1020.8 |
| 20260506114517 | 53 | 82 | 0.0 | 0.0 | 0.00 | 0.00 | 0.00 | 89 | 1020.7 |
| 20260506114416 | 53 | 82 | 0.0 | 0.0 | 0.00 | 0.00 | 0.00 | 88 | 1020.7 |
| 20260506114015 | 53 | 82 | 0.0 | 0.0 | 0.00 | 0.00 | 0.00 | 88 | 1020.7 |
| 20260506113916 | 53 | 82 | 0.0 | 0.0 | 0.00 | 0.00 | 0.00 | 88 | 1020.6 |
| 20260506113517 | 53 | 82 | 0.0 | 0.0 | 0.00 | 0.00 | 0.00 | 88 | 1020.5 |
| 20260506113415 | 53 | 82 | 0.0 | 0.0 | 0.00 | 0.00 | 0.00 | 88 | 1020.5 |
| 20260506113014 | 53 | 82 | 0.0 | 0.0 | 0.00 | 0.00 | 0.00 | 88 | 1020.6 |
| 20260506112916 | 53 | 82 | 0.0 | 0.0 | 0.00 | 0.00 | 0.00 | 88 | 1020.6 |
| 20260506112515 | 53 | 82 | 0.0 | 0.0 | 0.00 | 0.00 | 0.00 | 88 | 1020.6 |
| 20260506112415 | 53 | 82 | 0.0 | 0.0 | 0.00 | 0.00 | 0.00 | 88 | 1020.7 |
| 20260506112014 | 53 | 82 | 0.0 | 0.0 | 0.00 | 0.00 | 0.00 | 88 | 1020.6 |
| 20260506111934 | 53 | 82 | 0.0 | 0.0 | 0.00 | 0.00 | 0.00 | 88 | 1020.6 |
| 20260506111531 | 53 | 82 | 0.0 | 0.0 | 0.00 | 0.00 | 0.00 | 88 | 1020.5 |
| 20260506111412 | 53 | 82 | 0.0 | 0.0 | 0.00 | 0.00 | 0.00 | 88 | 1020.5 |
| 20260506111013 | 53 | 82 | 0.0 | 0.0 | 0.00 | 0.00 | 0.00 | 88 | 1020.5 |
| 20260506110915 | 53 | 82 | 0.0 | 0.0 | 0.00 | 0.00 | 0.00 | 88 | 1020.5 |
| 20260506110515 | 53 | 82 | 0.0 | 0.0 | 0.00 | 0.00 | 0.00 | 88 | 1020.5 |
| 20260506110414 | 53 | 82 | 0.0 | 0.0 | 0.00 | 0.00 | 0.00 | 88 | 1020.4 |
| 20260506110018 | 53 | 82 | 0.0 | 0.0 | 0.00 | 0.00 | 0.00 | 88 | 1020.4 |
| 20260506105923 | 53 | 82 | 0.0 | 0.0 | 0.00 | 0.00 | 0.00 | 88 | 1020.3 |
| 20260506105519 | 53 | 82 | 0.0 | 0.0 | 0.00 | 0.00 | 0.00 | 88 | 1020.3 |
| 20260506105421 | 53 | 82 | 0.0 | 0.0 | 0.00 | 0.00 | 0.00 | 88 | 1020.3 |
| 20260506105022 | 53 | 168 | 0.0 | 0.0 | 0.00 | 0.00 | 0.00 | 88 | 1020.3 |
| 20260506104924 | 53 | 168 | 0.0 | 0.0 | 0.00 | 0.00 | 0.00 | 88 | 1020.3 |
| 20260506104523 | 53 | 168 | 0.0 | 0.0 | 0.00 | 0.00 | 0.00 | 88 | 1020.2 |
| 20260506104425 | 53 | 168 | 0.0 | 0.0 | 0.00 | 0.00 | 0.00 | 88 | 1020.1 |
| 20260506104025 | 53 | 168 | 0.0 | 0.0 | 0.00 | 0.00 | 0.00 | 88 | 1020.2 |
| 20260506103926 | 53 | 168 | 0.0 | 0.0 | 0.00 | 0.00 | 0.00 | 88 | 1020.2 |
| 20260506103525 | 53 | 168 | 0.0 | 0.0 | 0.00 | 0.00 | 0.00 | 88 | 1020.2 |
| 20260506103427 | 53 | 168 | 0.0 | 0.0 | 0.00 | 0.00 | 0.00 | 88 | 1020.2 |
| 20260506103025 | 53 | 168 | 0.0 | 0.0 | 0.00 | 0.00 | 0.00 | 88 | 1020.1 |
| 20260506102927 | 53 | 168 | 0.0 | 0.0 | 0.00 | 0.00 | 0.00 | 88 | 1020.1 |
| 20260506102527 | 53 | 168 | 0.0 | 0.0 | 0.00 | 0.00 | 0.00 | 88 | 1020.1 |
| 20260506102430 | 53 | 168 | 0.0 | 0.0 | 0.00 | 0.00 | 0.00 | 88 | 1020.1 |
| 20260506102028 | 53 | 168 | 0.0 | 0.0 | 0.00 | 0.00 | 0.00 | 88 | 1020.0 |
| 20260506101930 | 53 | 168 | 0.0 | 0.0 | 0.00 | 0.00 | 0.00 | 88 | 1020.0 |
| 20260506101530 | 53 | 168 | 0.0 | 0.0 | 0.00 | 0.00 | 0.00 | 88 | 1019.9 |
| 20260506101429 | 53 | 168 | 0.0 | 0.0 | 0.00 | 0.00 | 0.00 | 88 | 1019.9 |
| 20260506101025 | 53 | 168 | 0.0 | 0.0 | 0.00 | 0.00 | 0.00 | 88 | 1019.8 |
| 20260506100926 | 53 | 168 | 0.0 | 0.0 | 0.00 | 0.00 | 0.00 | 88 | 1019.8 |
| 20260506100528 | 53 | 168 | 0.0 | 0.0 | 0.00 | 0.00 | 0.00 | 88 | 1019.9 |
| 20260506100429 | 53 | 168 | 0.0 | 0.0 | 0.00 | 0.00 | 0.00 | 88 | 1019.8 |
| 20260506100031 | 53 | 168 | 0.0 | 0.0 | 0.00 | 0.00 | 0.00 | 88 | 1019.9 |
| 20260506095931 | 53 | 168 | 0.0 | 0.0 | 0.00 | 0.00 | 0.00 | 88 | 1019.8 |
| 20260506095532 | 53 | 168 | 0.0 | 0.0 | 0.00 | 0.00 | 0.00 | 88 | 1019.8 |
| 20260506095433 | 53 | 168 | 0.0 | 0.0 | 0.00 | 0.00 | 0.00 | 88 | 1019.8 |
| 20260506095032 | 53 | 168 | 0.0 | 0.0 | 0.00 | 0.00 | 0.00 | 88 | 1019.8 |
| 20260506094934 | 53 | 168 | 0.0 | 0.0 | 0.00 | 0.00 | 0.00 | 88 | 1019.8 |
| 20260506094530 | 53 | 168 | 0.0 | 0.0 | 0.00 | 0.00 | 0.00 | 88 | 1019.8 |
| 20260506094429 | 53 | 168 | 0.0 | 0.0 | 0.00 | 0.00 | 0.00 | 88 | 1019.8 |
| 20260506094033 | 53 | 168 | 0.0 | 0.0 | 0.00 | 0.00 | 0.00 | 88 | 1019.8 |
| 20260506093913 | 53 | 168 | 0.0 | 0.0 | 0.00 | 0.00 | 0.00 | 88 | 1019.7 |
| 20260506093516 | 53 | 168 | 0.0 | 0.0 | 0.00 | 0.00 | 0.00 | 88 | 1019.6 |
| 20260506093417 | 53 | 168 | 0.0 | 0.0 | 0.00 | 0.00 | 0.00 | 88 | 1019.6 |
| 20260506093018 | 53 | 168 | 0.0 | 0.0 | 0.00 | 0.00 | 0.00 | 88 | 1019.5 |
| 20260506092921 | 53 | 168 | 0.0 | 0.0 | 0.00 | 0.00 | 0.00 | 88 | 1019.6 |
| 20260506092520 | 53 | 168 | 0.0 | 0.0 | 0.00 | 0.00 | 0.00 | 88 | 1019.6 |
| 20260506092422 | 53 | 168 | 0.0 | 0.0 | 0.00 | 0.00 | 0.00 | 88 | 1019.5 |
| 20260506092020 | 53 | 168 | 0.0 | 0.0 | 0.00 | 0.00 | 0.00 | 88 | 1019.5 |
| 20260506091922 | 53 | 168 | 0.0 | 0.0 | 0.00 | 0.00 | 0.00 | 88 | 1019.5 |
| 20260506091520 | 53 | 168 | 0.0 | 0.0 | 0.00 | 0.00 | 0.00 | 88 | 1019.5 |
| 20260506091422 | 53 | 168 | 0.0 | 0.0 | 0.00 | 0.00 | 0.00 | 88 | 1019.5 |
| 20260506091019 | 53 | 168 | 0.0 | 0.0 | 0.00 | 0.00 | 0.00 | 88 | 1019.4 |
| 20260506090920 | 54 | 168 | 0.0 | 0.0 | 0.00 | 0.00 | 0.00 | 88 | 1019.4 |
| 20260506090519 | 54 | 168 | 0.0 | 0.0 | 0.00 | 0.00 | 0.00 | 88 | 1019.4 |
| 20260506090417 | 54 | 168 | 0.0 | 0.0 | 0.00 | 0.00 | 0.00 | 88 | 1019.4 |
| 20260506090024 | 54 | 168 | 0.0 | 0.0 | 0.00 | 0.01 | 0.00 | 88 | 1019.5 |
| 20260506085931 | 54 | 168 | 0.0 | 0.0 | 0.00 | 0.01 | 0.00 | 88 | 1019.5 |
| 20260506085529 | 54 | 168 | 0.0 | 0.0 | 0.00 | 0.01 | 0.00 | 88 | 1019.5 |
| 20260506085430 | 54 | 168 | 0.0 | 0.0 | 0.00 | 0.01 | 0.00 | 88 | 1019.5 |
| 20260506085029 | 54 | 168 | 0.0 | 0.0 | 0.00 | 0.01 | 0.00 | 88 | 1019.4 |
| 20260506084930 | 54 | 168 | 0.0 | 0.0 | 0.00 | 0.01 | 0.00 | 88 | 1019.4 |
| 20260506084530 | 54 | 168 | 0.0 | 0.0 | 0.00 | 0.01 | 0.00 | 88 | 1019.4 |
| 20260506084431 | 54 | 168 | 0.0 | 0.0 | 0.00 | 0.01 | 0.00 | 88 | 1019.3 |
| 20260506084029 | 54 | 168 | 0.0 | 0.0 | 0.00 | 0.01 | 0.00 | 88 | 1019.4 |
| 20260506083930 | 54 | 168 | 0.0 | 0.0 | 0.00 | 0.01 | 0.00 | 88 | 1019.3 |
| 20260506083532 | 54 | 168 | 0.0 | 0.0 | 0.00 | 0.01 | 0.00 | 88 | 1019.3 |
| 20260506083432 | 54 | 168 | 0.0 | 0.0 | 0.00 | 0.01 | 0.00 | 88 | 1019.3 |
| 20260506083030 | 54 | 168 | 0.0 | 0.0 | 0.00 | 0.01 | 0.00 | 88 | 1019.3 |
| 20260506082931 | 54 | 168 | 0.0 | 0.0 | 0.00 | 0.01 | 0.00 | 88 | 1019.3 |
| 20260506082529 | 54 | 288 | 0.0 | 0.0 | 0.00 | 0.01 | 0.00 | 89 | 1019.2 |
| 20260506082430 | 54 | 288 | 0.0 | 0.0 | 0.00 | 0.01 | 0.00 | 89 | 1019.2 |
| 20260506082029 | 54 | 288 | 0.0 | 0.0 | 0.00 | 0.01 | 0.00 | 88 | 1019.2 |
| 20260506081928 | 54 | 288 | 0.0 | 0.0 | 0.00 | 0.01 | 0.00 | 89 | 1019.2 |
| 20260506081526 | 54 | 288 | 0.0 | 0.0 | 0.00 | 0.01 | 0.00 | 88 | 1019.1 |
| 20260506081426 | 54 | 288 | 0.0 | 0.0 | 0.00 | 0.01 | 0.00 | 88 | 1019.2 |
| 20260506081026 | 54 | 288 | 0.0 | 0.0 | 0.00 | 0.01 | 0.00 | 89 | 1019.1 |
| 20260506080926 | 54 | 288 | 0.0 | 0.0 | 0.00 | 0.01 | 0.00 | 89 | 1019.1 |
| 20260506080523 | 54 | 288 | 0.0 | 0.0 | 0.00 | 0.01 | 0.00 | 89 | 1019.0 |
| 20260506080423 | 54 | 288 | 0.0 | 0.0 | 0.00 | 0.01 | 0.00 | 89 | 1019.2 |
| 20260506073516 | 54 | 288 | 0.0 | 0.0 | 0.00 | 0.01 | 0.00 | 88 | 1018.8 |
| 20260506073415 | 54 | 288 | 0.0 | 0.0 | 0.00 | 0.01 | 0.00 | 88 | 1018.8 |
| 20260506073015 | 54 | 288 | 0.0 | 0.0 | 0.00 | 0.01 | 0.00 | 88 | 1018.8 |
| 20260506072917 | 54 | 288 | 0.0 | 0.0 | 0.00 | 0.01 | 0.00 | 88 | 1018.7 |
| 20260506072517 | 54 | 288 | 0.0 | 0.0 | 0.00 | 0.01 | 0.00 | 88 | 1018.7 |
| 20260506072420 | 54 | 288 | 0.0 | 0.0 | 0.00 | 0.01 | 0.00 | 88 | 1018.6 |
| 20260506072023 | 54 | 288 | 0.0 | 0.0 | 0.00 | 0.01 | 0.00 | 88 | 1018.5 |
| 20260506071924 | 54 | 288 | 0.0 | 0.0 | 0.00 | 0.01 | 0.00 | 88 | 1018.6 |
| 20260506071525 | 54 | 288 | 0.0 | 0.0 | 0.00 | 0.01 | 0.00 | 88 | 1018.6 |
| 20260506071425 | 54 | 288 | 0.0 | 0.0 | 0.00 | 0.01 | 0.00 | 88 | 1018.6 |
| 20260506071026 | 54 | 288 | 0.0 | 0.0 | 0.00 | 0.01 | 0.00 | 88 | 1018.5 |
| 20260506070927 | 54 | 288 | 0.0 | 0.0 | 0.00 | 0.01 | 0.00 | 88 | 1018.6 |
| 20260506070528 | 54 | 288 | 0.0 | 0.0 | 0.00 | 0.01 | 0.00 | 88 | 1018.5 |
| 20260506070427 | 54 | 288 | 0.0 | 0.0 | 0.00 | 0.01 | 0.00 | 88 | 1018.5 |
| 20260506062426 | 54 | 288 | 0.0 | 0.0 | 0.00 | 0.01 | 0.01 | 87 | 1018.5 |
| 20260506062026 | 54 | 288 | 0.0 | 0.0 | 0.00 | 0.01 | 0.01 | 87 | 1018.6 |
| 20260506061927 | 54 | 288 | 0.0 | 0.0 | 0.00 | 0.01 | 0.01 | 87 | 1018.5 |
| 20260506061529 | 54 | 288 | 0.0 | 0.0 | 0.00 | 0.01 | 0.01 | 87 | 1018.5 |
| 20260506061429 | 55 | 288 | 0.0 | 0.0 | 0.00 | 0.01 | 0.01 | 87 | 1018.5 |
| 20260506061030 | 55 | 288 | 0.0 | 0.0 | 0.00 | 0.01 | 0.01 | 87 | 1018.5 |
| 20260506060931 | 54 | 288 | 0.0 | 0.0 | 0.00 | 0.01 | 0.01 | 87 | 1018.6 |
| 20260506060532 | 54 | 288 | 0.0 | 0.0 | 0.00 | 0.01 | 0.01 | 87 | 1018.5 |
| 20260506060413 | 54 | 288 | 0.0 | 0.0 | 0.00 | 0.01 | 0.01 | 87 | 1018.5 |